[[{"header":{"parameterUnit":"m.s-1","parameterCategory":1,"la1":30.2991,"la2":30.254,"lo1":-89.0895,"lo2":-89.0444,"dy":0.0017,"dx":0.0017,"nx":28,"ny":28,"refTime":"2023-11-22T09:00:00:Z","depth":0,"parameterNumber":2,"parameterNumberName":"U-component_of_WINDS"},"data":[0,0,0,0,0,0,0,0,0,0,0,0,0,0,0,0,0,0,0,0,0,0,0,0,0,0,0,0,0,0,0,0,0,0,0,0,0,0,0,0,0,0,0,0,0,0,0,0,0,0,0,0,0,0,0,0,0,0,-1.497,-1.4971,0,-1.5095,-1.5096,-1.5097,-1.5025,-1.5022,-1.5018,-1.5015,-1.5146,-1.5153,-1.5159,0,0,0,0,0,0,0,0,0,0,0,0,0,-1.4672,-1.4678,-1.497,-1.4972,-1.4973,-1.5094,-1.5096,-1.5098,-1.5026,-1.5022,-1.5017,-1.5013,-1.5144,-1.5152,-1.516,0,0,0,0,0,0,0,0,0,0,0,0,0,-1.48,-1.468,-1.497,-1.4952,-1.4951,-1.5094,-1.5096,-1.5098,-1.5027,-1.5022,-1.5016,-1.5011,-1.5141,-1.5151,-1.5161,-1.5329,0,0,-1.5192,-1.5196,0,0,0,0,0,0,0,0,-1.4793,-1.4811,-1.4953,-1.4953,-1.4953,-1.5039,-1.5039,-1.5176,-1.5028,-1.4998,-1.5015,-1.5009,-1.5115,-1.5127,-1.5162,-1.5335,-1.5341,-1.5193,-1.5199,-1.5203,-1.5206,0,0,0,0,0,0,0,-1.4784,-1.4805,-1.5019,-1.4955,-1.4955,-1.4938,-1.4951,-1.5065,-1.5085,-1.5001,-1.4996,-1.5011,-1.5114,-1.5152,-1.5165,-1.5343,-1.5193,-1.5202,-1.5208,-1.5212,-1.566,-1.5666,0,0,0,0,0,0,-1.4776,-1.4798,-1.5015,-1.5023,-1.4858,-1.4948,-1.4962,-1.5017,-1.5083,-1.5088,-1.5016,-1.5007,-1.5138,-1.5153,-1.5169,-1.537,-1.5203,-1.5213,-1.5219,-1.5655,-1.5662,-1.5668,0,0,0,0,0,0,-1.477,-1.4796,-1.501,-1.4909,-1.4935,-1.4959,-1.5021,-1.5022,-1.506,-1.5095,-1.5098,-1.5051,-1.5134,-1.5155,-1.529,-1.5374,-1.5217,-1.5227,-1.5648,-1.5657,-1.5665,-1.5775,0,0,0,0,0,0,-1.4762,-1.4794,-1.4858,-1.4911,-1.4941,-1.5129,-1.5026,-1.5028,-1.5078,-1.5068,-1.5129,-1.5134,-1.5131,-1.5275,-1.53,-1.5385,-1.5235,-1.564,-1.5652,-1.5662,-1.5764,-1.5786,-1.5806,0,0,0,0,0,-1.4751,-1.4885,-1.4862,-1.4888,-1.5021,-1.5134,-1.5151,-1.5145,-1.5085,-1.5149,-1.5171,-1.5132,-1.536,-1.5289,-1.5317,-1.5406,-1.5635,-1.5649,-1.5661,-1.5755,-1.5782,-1.5805,0,0,0,0,0,0,-1.4843,-1.4892,-1.4866,-1.5021,-1.5074,-1.5121,-1.5203,-1.5174,-1.5245,-1.5234,-1.5223,-1.5238,-1.5379,-1.5406,-1.5326,-1.5573,-1.5488,-1.5508,-1.555,-1.5576,-1.5597,-1.5588,-1.5243,0,0,0,0,0,-1.488,-1.4967,-1.5005,-1.5138,-1.5166,-1.518,-1.5229,-1.5219,-1.5274,-1.5296,-1.5328,-1.5383,-1.5467,-1.5523,-1.5602,-1.5767,-1.5779,-1.5842,-1.5863,-1.588,-1.5897,-1.5986,-1.6014,-1.5711,-1.5711,-1.5711,0,0,-1.496,-1.4998,-1.5053,-1.5158,-1.5197,-1.5288,-1.5199,-1.5299,-1.5367,-1.5312,-1.5441,-1.5466,-1.5527,-1.5678,-1.5746,-1.5705,-1.5983,-1.5896,-1.591,-1.5918,-1.6002,-1.6031,-1.6057,-1.572,-1.5718,-1.5717,0,0,-1.5152,-1.5189,-1.5303,-1.5344,-1.5405,-1.5413,-1.5441,-1.5493,-1.5507,-1.5636,-1.5597,-1.5677,-1.5822,-1.5867,-1.5909,-1.6116,-1.6083,-1.6142,-1.6252,-1.6339,-1.6363,-1.6384,-1.6459,-1.6485,-1.6159,-1.6159,-1.6159,0,-1.5244,-1.5378,-1.5366,-1.5469,-1.5516,-1.5469,-1.5585,-1.5626,-1.571,-1.5744,-1.5696,-1.5877,-1.5914,-1.6075,-1.6125,-1.616,-1.6192,-1.6136,-1.636,-1.6381,-1.6401,-1.6472,-1.65,-1.6166,-1.6165,-1.6165,-1.6164,0,-1.5489,-1.5582,-1.5668,-1.5749,-1.5805,-1.5915,-1.592,-1.5979,-1.5963,-1.5977,-1.6109,-1.6152,-1.6239,-1.6276,-1.6263,-1.6435,-1.6408,-1.636,-1.6276,-1.6437,-1.6503,-1.653,-1.6176,-1.6173,-1.6171,-1.617,0,0,-1.5744,-1.5815,-1.5847,-1.5883,-1.5945,-1.6018,-1.6125,-1.6208,-1.626,-1.6318,-1.6409,-1.6531,-1.6487,-1.6535,-1.6526,-1.6602,-1.6764,-1.6546,-1.6547,-1.6586,-1.6957,-1.6993,-1.7025,-1.6742,-1.6747,-1.6751,-1.6952,0,-1.594,-1.6126,-1.6118,-1.6292,-1.6379,-1.6334,-1.6427,-1.6476,-1.6491,-1.6567,-1.6583,-1.6671,-1.6606,-1.6635,-1.6708,-1.6729,-1.6839,-1.6714,-1.6827,-1.6831,-1.6814,-1.706,-1.7099,-1.7287,-1.6978,-1.6983,-1.6986,0,-1.6195,-1.6261,-1.6444,-1.6492,-1.6529,-1.6612,-1.6688,-1.6761,-1.6816,-1.6821,-1.6874,-1.6852,-1.6961,-1.6872,-1.7022,-1.6937,-1.6982,-1.7,-1.7007,-1.7018,-1.6919,-1.7079,-1.7347,-1.7375,-1.7027,-1.7023,-1.702,0,-1.6363,-1.6498,-1.6625,-1.6657,-1.6717,-1.6777,-1.6805,-1.6854,-1.6905,-1.6971,-1.7004,-1.7082,-1.7126,-1.7187,-1.7188,-1.7123,-1.734,-1.7251,-1.7348,-1.7349,-1.7397,-1.7395,-1.7677,-1.7425,-1.7424,-1.7424,-1.7423,0,-1.6584,-1.6698,-1.6701,-1.678,-1.6906,-1.6895,-1.702,-1.7042,-1.7086,-1.7168,-1.7133,-1.7211,-1.7206,-1.7285,-1.7286,-1.7411,-1.743,-1.7438,-1.7438,-1.7442,-1.7442,-1.7473,-1.746,-1.7431,-1.7429,-1.7428,-1.7427,0,-1.6795,-1.6802,-1.6937,-1.6982,-1.6996,-1.7087,-1.7126,-1.72,-1.7211,-1.7315,-1.7339,-1.7357,-1.7448,-1.7454,-1.756,-1.756,-1.7711,-1.7696,-1.7693,-1.7691,-1.7788,-1.7779,-1.8102,-1.8143,-1.7863,-1.7865,-1.7868,0,-1.6937,-1.7023,-1.7077,-1.7129,-1.716,-1.7244,-1.7295,-1.7287,-1.7342,-1.741,-1.7476,-1.7564,-1.7633,-1.7781,-1.7804,-1.7884,-1.7871,-1.7978,-1.7883,-1.7885,-1.7873,-1.7869,-1.7877,-1.7997,-1.8,-1.8003,-1.8005,0,-1.7187,-1.7186,-1.726,-1.7336,-1.7398,-1.7457,-1.7513,-1.7557,-1.7556,-1.762,-1.7712,-1.7766,-1.7872,-1.796,-1.8038,-1.8067,-1.8037,-1.8034,-1.8061,-1.8068,-1.8063,-1.8068,-1.7745,-1.8027,-1.8025,-1.8024,-1.8022,-1.8021,-1.7368,-1.7443,-1.7492,-1.7576,-1.7617,-1.7669,-1.7741,-1.776,-1.7836,-1.7922,-1.7913,-1.8015,-1.8066,-1.8168,-1.8203,-1.8283,-1.8247,-1.8286,-1.8296,-1.8306,-1.8316,-1.8049,-1.8297,-1.8297,-1.8296,-1.8296,-1.8295,0,-1.7618,-1.7647,-1.7724,-1.7802,-1.7868,-1.7832,-1.7891,-1.7949,-1.8039,-1.8089,-1.8157,-1.8263,-1.8347,-1.8376,-1.8458,-1.8517,-1.8505,-1.8539,-1.8535,-1.8542,-1.8344,-1.8313,-1.8547,-1.8547,-1.8547,-1.8547,-1.8547,-1.8547,-1.7756,-1.788,-1.7884,-1.8028,-1.8056,-1.8155,-1.8192,-1.824,-1.828,-1.8399,-1.8468,-1.8486,-1.8527,-1.8612,-1.8687,-1.8694,-1.8726,-1.8766,-1.8767,-1.8581,-1.8556,-1.8532,-1.8503,-1.8773,-1.8773,-1.8958,-1.896,-1.8961]},{"header":{"parameterUnit":"m.s-1","parameterCategory":1,"la1":30.2991,"la2":30.254,"lo1":-89.0895,"lo2":-89.0444,"dy":0.0017,"dx":0.0017,"nx":28,"ny":28,"refTime":"2023-11-22T09:00:00:Z","depth":0,"parameterNumber":3,"parameterNumberName":"V-component_of_WINDS"},"data":[0,0,0,0,0,0,0,0,0,0,0,0,0,0,0,0,0,0,0,0,0,0,0,0,0,0,0,0,0,0,0,0,0,0,0,0,0,0,0,0,0,0,0,0,0,0,0,0,0,0,0,0,0,0,0,0,0,0,-3.584,-3.5841,0,-3.594,-3.5941,-3.5942,-3.5902,-3.5899,-3.5897,-3.5895,-3.5995,-3.5999,-3.6004,0,0,0,0,0,0,0,0,0,0,0,0,0,-3.5611,-3.5615,-3.584,-3.5841,-3.5842,-3.594,-3.5941,-3.5942,-3.5902,-3.5899,-3.5896,-3.5894,-3.5993,-3.5999,-3.6005,0,0,0,0,0,0,0,0,0,0,0,0,0,-3.5711,-3.5617,-3.584,-3.5834,-3.5835,-3.5939,-3.5941,-3.5943,-3.5903,-3.5899,-3.5896,-3.5892,-3.5991,-3.5998,-3.6005,-3.6121,0,0,-3.6028,-3.6031,0,0,0,0,0,0,0,0,-3.5705,-3.5719,-3.5834,-3.5835,-3.5835,-3.5905,-3.5897,-3.6002,-3.5904,-3.5877,-3.5895,-3.5891,-3.5967,-3.5976,-3.6003,-3.6125,-3.613,-3.6028,-3.6033,-3.6036,-3.6038,0,0,0,0,0,0,0,-3.5698,-3.5714,-3.5879,-3.5835,-3.5836,-3.5825,-3.5836,-3.5917,-3.594,-3.5879,-3.5876,-3.5889,-3.5967,-3.5996,-3.6005,-3.6131,-3.6028,-3.6034,-3.6039,-3.6042,-3.6351,-3.6355,0,0,0,0,0,0,-3.5691,-3.5709,-3.5876,-3.5882,-3.576,-3.5832,-3.5844,-3.5886,-3.594,-3.5944,-3.5892,-3.5886,-3.5985,-3.5996,-3.6008,-3.6145,-3.6036,-3.6042,-3.6047,-3.6347,-3.6352,-3.6356,0,0,0,0,0,0,-3.5687,-3.5707,-3.5872,-3.5795,-3.5815,-3.584,-3.5888,-3.589,-3.5918,-3.5949,-3.5953,-3.5917,-3.5983,-3.5998,-3.6093,-3.6148,-3.6046,-3.6052,-3.6343,-3.6349,-3.6354,-3.6422,0,0,0,0,0,0,-3.568,-3.5705,-3.575,-3.5796,-3.5819,-3.5956,-3.5891,-3.5894,-3.5931,-3.5926,-3.5974,-3.5978,-3.5981,-3.6082,-3.61,-3.6156,-3.6058,-3.6338,-3.6345,-3.6352,-3.6414,-3.6429,-3.6441,0,0,0,0,0,-3.5672,-3.5765,-3.5753,-3.5773,-3.5876,-3.596,-3.5973,-3.5975,-3.5936,-3.5981,-3.6,-3.5977,-3.6139,-3.6092,-3.6112,-3.6171,-3.6334,-3.6343,-3.6352,-3.6408,-3.6426,-3.6441,0,0,0,0,0,0,-3.5725,-3.5771,-3.5758,-3.5869,-3.5911,-3.5953,-3.6009,-3.5994,-3.6047,-3.6039,-3.6039,-3.605,-3.6147,-3.6169,-3.6115,-3.6285,-3.6231,-3.6244,-3.6267,-3.6284,-3.6297,-3.629,-3.6064,0,0,0,0,0,-3.5749,-3.5814,-3.5851,-3.5945,-3.5966,-3.5984,-3.6021,-3.6019,-3.6062,-3.6079,-3.6105,-3.6147,-3.6207,-3.6247,-3.6304,-3.6417,-3.6426,-3.6468,-3.6481,-3.6492,-3.6503,-3.6563,-3.6581,-3.6385,-3.6385,-3.6384,0,0,-3.58,-3.5834,-3.5875,-3.5956,-3.5988,-3.6054,-3.5999,-3.6072,-3.612,-3.6089,-3.618,-3.6201,-3.6248,-3.6352,-3.6399,-3.6373,-3.656,-3.6503,-3.6512,-3.6517,-3.6574,-3.6592,-3.6609,-3.639,-3.6389,-3.6388,0,0,-3.5927,-3.596,-3.6041,-3.6074,-3.6123,-3.6134,-3.6154,-3.6198,-3.6211,-3.6303,-3.6281,-3.6337,-3.6442,-3.6475,-3.6506,-3.6644,-3.6624,-3.6663,-3.6732,-3.6791,-3.6806,-3.682,-3.6867,-3.6885,-3.6674,-3.6674,-3.6674,0,-3.5984,-3.6083,-3.6084,-3.6158,-3.6194,-3.617,-3.6251,-3.6283,-3.6348,-3.6373,-3.6343,-3.6472,-3.6502,-3.6613,-3.6646,-3.6672,-3.6693,-3.6657,-3.6804,-3.6818,-3.683,-3.6876,-3.6894,-3.6678,-3.6678,-3.6677,-3.6677,0,-3.615,-3.6219,-3.6279,-3.6343,-3.6385,-3.6462,-3.6474,-3.6517,-3.651,-3.6524,-3.6617,-3.6651,-3.6714,-3.6741,-3.6735,-3.685,-3.6832,-3.6803,-3.6749,-3.6853,-3.6896,-3.6914,-3.6684,-3.6683,-3.6681,-3.668,0,0,-3.6313,-3.6376,-3.6398,-3.6426,-3.6478,-3.6531,-3.6606,-3.6668,-3.6704,-3.675,-3.6812,-3.69,-3.6873,-3.6908,-3.6906,-3.6957,-3.7062,-3.6922,-3.6923,-3.6945,-3.7189,-3.721,-3.723,-3.7049,-3.7053,-3.7056,-3.7185,0,-3.6443,-3.6576,-3.6578,-3.67,-3.6763,-3.674,-3.6805,-3.6843,-3.6858,-3.6912,-3.6928,-3.699,-3.6951,-3.6971,-3.7021,-3.7039,-3.7111,-3.703,-3.7106,-3.7108,-3.7094,-3.7253,-3.7276,-3.7396,-3.7202,-3.7204,-3.7207,0,-3.6612,-3.6663,-3.6791,-3.6833,-3.6859,-3.6918,-3.6974,-3.7027,-3.7069,-3.7076,-3.7115,-3.7105,-3.718,-3.7124,-3.7226,-3.7171,-3.7202,-3.7216,-3.722,-3.7227,-3.7163,-3.7262,-3.7434,-3.7452,-3.7233,-3.7231,-3.7229,0,-3.6717,-3.6818,-3.6907,-3.6931,-3.6983,-3.7024,-3.7047,-3.7086,-3.7123,-3.7172,-3.7195,-3.7252,-3.7283,-3.7327,-3.7332,-3.7291,-3.7435,-3.7379,-3.7441,-3.7441,-3.7472,-3.747,-3.765,-3.7494,-3.7493,-3.7493,-3.7493,0,-3.6861,-3.694,-3.6954,-3.7009,-3.7096,-3.7097,-3.7183,-3.7202,-3.7237,-3.7294,-3.7277,-3.7331,-3.7335,-3.739,-3.7394,-3.7477,-3.7492,-3.7498,-3.7498,-3.7499,-3.7498,-3.7519,-3.7511,-3.7498,-3.7497,-3.7496,-3.7495,0,-3.6992,-3.7005,-3.7101,-3.7141,-3.7153,-3.7215,-3.7249,-3.73,-3.7313,-3.7385,-3.7402,-3.7422,-3.7485,-3.7495,-3.7569,-3.7572,-3.7671,-3.7663,-3.7657,-3.7656,-3.7717,-3.7711,-3.7916,-3.7943,-3.777,-3.7772,-3.7773,0,-3.7083,-3.7143,-3.719,-3.7227,-3.7252,-3.7313,-3.735,-3.7353,-3.7392,-3.7444,-3.7489,-3.7551,-3.76,-3.7702,-3.7722,-3.7779,-3.7771,-3.7839,-3.7779,-3.7778,-3.7771,-3.7767,-3.7772,-3.7851,-3.7852,-3.7854,-3.7855,0,-3.7242,-3.7245,-3.73,-3.7357,-3.7402,-3.7447,-3.7489,-3.752,-3.7528,-3.7573,-3.7638,-3.7676,-3.7752,-3.7813,-3.7869,-3.7891,-3.7874,-3.7874,-3.7891,-3.7892,-3.7886,-3.7889,-3.7688,-3.7869,-3.7868,-3.7867,-3.7866,-3.7865,-3.7355,-3.7407,-3.7448,-3.7509,-3.7541,-3.758,-3.763,-3.7649,-3.7703,-3.7765,-3.7763,-3.7834,-3.7873,-3.7946,-3.7972,-3.8026,-3.8004,-3.8029,-3.8035,-3.8041,-3.8047,-3.7878,-3.8037,-3.8036,-3.8036,-3.8036,-3.8035,0,-3.7513,-3.7537,-3.7594,-3.7653,-3.7701,-3.7681,-3.7727,-3.7767,-3.783,-3.7868,-3.7917,-3.7991,-3.8049,-3.8074,-3.8131,-3.817,-3.8163,-3.8185,-3.8181,-3.8186,-3.8064,-3.8043,-3.8189,-3.8189,-3.8189,-3.8189,-3.8189,-3.8189,-3.76,-3.7686,-3.7694,-3.7794,-3.7818,-3.7888,-3.7915,-3.7951,-3.7981,-3.8064,-3.8113,-3.8129,-3.8161,-3.822,-3.8272,-3.8278,-3.8299,-3.8324,-3.8326,-3.8211,-3.8195,-3.818,-3.816,-3.8328,-3.8329,-3.8443,-3.8444,-3.8445]}]]